SCP
0 0 0 0 0 0 0 0 0 0 0 0 0 0 0 0 0 0 0 0 0 0 0 0 0 0 0 0 1 1 1 1 1 1 1 1 1 1 1 0 0 0 0 0
0 0 0 0 0 0 0 0 0 0 0 0 0 0 0 0 0 0 0 0 0 0 0 0 0 0 0 0 0 1 1 1 1 1 1 1 1 1 1 0 0 0 0 0
0 0 0 0 0 0 0 0 0 0 0 0 0 0 0 0 0 0 0 0 0 0 0 0 0 0 0 0 0 1 1 1 1 1 1 1 1 1 0 0 0 0 0 0
0 0 0 0 0 0 0 0 0 0 0 0 0 0 0 0 0 0 0 0 0 0 0 0 0 0 0 0 0 0 0 1 1 1 1 1 1 1 0 0 0 0 0 0
0 0 0 0 0 0 0 0 0 0 0 0 0 0 0 0 0 0 0 0 0 0 0 0 0 0 0 0 0 0 0 0 1 1 1 1 1 1 1 0 0 0 0 0
0 0 0 0 0 0 0 0 0 0 0 0 0 0 0 0 0 0 0 0 0 0 0 0 0 0 0 0 0 0 0 0 0 0 1 1 1 1 1 1 1 0 0 0
0 0 0 0 0 0 0 0 0 0 0 0 0 0 0 0 0 0 0 0 0 0 0 0 0 0 0 0 0 0 0 0 0 0 0 1 1 1 1 1 1 0 0 0
0 0 0 0 0 0 0 0 0 0 0 0 0 0 0 0 0 0 0 0 0 0 0 0 0 0 0 0 0 0 0 0 0 0 0 0 0 1 1 1 0 0 0 0
0 0 0 0 0 0 0 0 0 0 0 0 0 0 0 0 0 0 0 0 0 0 0 0 0 0 0 0 0 0 0 0 0 0 0 0 0 0 0 0 0 0 0 0
0 0 0 0 0 0 0 0 0 0 0 0 0 0 0 0 0 0 0 0 0 0 0 0 0 0 0 0 0 0 0 0 0 0 0 0 0 0 0 0 0 0 0 0
0 0 0 0 0 0 0 0 0 0 0 0 0 0 0 0 0 0 0 0 0 0 0 0 0 0 0 0 0 0 0 0 0 0 0 0 0 0 0 0 0 0 0 0
0 0 0 0 0 0 0 0 0 0 0 0 0 0 0 0 0 0 0 0 0 0 0 0 0 0 0 0 0 0 0 0 0 0 0 0 0 0 0 0 0 0 0 0
0 0 0 0 0 0 0 0 0 0 0 0 0 0 0 0 0 0 0 0 0 0 0 0 0 0 0 0 0 0 0 0 0 0 0 0 0 0 0 0 0 0 0 0
0 0 0 0 0 0 0 0 0 0 0 0 0 0 0 0 0 0 0 0 0 0 0 0 0 0 0 0 0 0 0 0 0 0 0 0 0 0 0 0 0 0 0 0
0 0 0 0 0 0 0 0 0 0 0 0 0 0 0 0 0 0 0 0 0 0 0 0 0 0 0 0 0 0 0 0 0 0 0 0 0 0 0 0 0 0 0 0
0 0 0 0 0 0 0 0 0 0 0 0 0 0 0 0 0 0 0 0 0 0 0 0 0 0 0 0 0 0 0 0 0 0 0 0 0 0 0 0 0 0 0 0
0 0 0 0 0 0 0 0 0 0 0 0 0 0 0 0 0 0 0 0 0 0 0 0 0 0 0 0 0 0 0 0 0 0 0 0 0 0 0 0 0 0 0 0
0 0 0 0 0 0 0 0 0 0 0 0 0 0 0 0 0 0 0 0 0 0 0 0 0 0 0 0 0 0 0 0 0 0 0 0 0 0 0 0 0 0 0 0
0 0 0 0 0 0 0 0 0 0 0 0 0 0 0 0 0 0 0 0 0 0 0 0 0 0 0 0 0 0 0 0 0 0 0 0 0 0 0 0 0 0 0 0
0 0 0 0 0 0 0 0 0 0 0 0 0 0 0 0 0 0 0 0 0 0 0 0 0 0 0 0 0 0 0 0 0 0 0 0 0 0 0 0 0 0 0 0
0 0 0 0 0 0 0 0 0 0 0 0 0 0 0 0 0 0 0 0 0 0 0 0 0 0 0 0 0 0 0 0 0 0 0 0 0 0 0 0 0 0 0 0
0 0 0 0 0 0 0 0 0 0 0 0 0 0 0 0 0 0 0 0 0 0 0 0 0 0 0 0 0 0 0 0 0 0 0 0 0 0 0 0 0 0 0 0
0 0 0 0 0 0 0 0 0 0 0 0 0 0 0 0 0 0 0 0 0 0 0 0 0 0 0 0 0 0 0 0 0 0 0 0 0 0 0 0 0 0 0 0
0 0 0 0 0 0 0 0 0 0 0 0 0 0 0 0 0 0 0 0 0 0 0 0 0 0 0 0 0 0 0 0 0 0 0 0 0 0 0 0 0 0 0 0
0 0 0 0 0 0 0 0 0 0 0 0 0 0 0 0 0 0 0 0 0 0 0 0 0 0 0 0 0 0 0 0 0 0 0 0 0 0 0 0 0 0 0 0
0 0 0 0 0 0 0 0 0 0 0 0 0 0 0 0 0 0 0 0 0 0 0 0 0 0 0 0 0 0 0 0 0 0 0 0 0 0 0 0 0 0 0 0
Wind_Speed
2 3 1 2 3 2 1 2 2 2 2 2 4 4 4 4 3 3 3 3 2 2 2 3 4 4 4 3 3 3 3 2 2 2 2 2 2 2 2 3 4 4 4 4
2 1 2 2 2 2 3 3 2 1 1 1 3 4 3 4 3 2 2 2 2 2 2 3 3 4 3 3 3 3 3 3 2 1 1 1 1 1 2 2 3 5 5 5
2 1 1 1 1 2 4 3 3 2 1 2 2 3 5 4 4 3 2 2 2 2 1 2 2 3 3 3 2 3 3 3 3 2 1 2 1 1 2 3 3 4 4 5
2 3 2 0 2 3 4 2 2 3 2 2 3 4 6 7 7 6 4 3 2 2 2 1 1 2 3 3 3 3 3 3 2 2 1 1 1 1 2 1 2 3 4 4
2 4 3 1 3 3 2 1 2 4 3 2 3 4 4 6 6 8 6 4 3 2 2 1 1 1 2 3 3 3 3 3 2 2 2 1 1 1 1 2 2 3 3 4
1 1 2 3 3 2 1 1 3 4 3 5 6 5 4 6 7 6 6 5 4 3 2 1 2 2 3 3 3 3 3 3 3 2 2 1 1 2 2 2 2 2 2 3
0 0 1 2 3 1 2 2 1 2 3 5 5 5 6 4 4 6 7 5 4 4 3 2 2 2 2 3 3 3 4 4 3 3 2 2 2 1 1 1 2 2 2 3
1 1 0 1 1 2 3 2 2 2 3 2 3 6 3 2 3 4 4 4 4 4 3 2 2 1 1 2 2 2 3 3 4 3 3 2 2 1 1 1 1 2 2 2
2 1 0 1 1 2 1 1 1 1 2 2 4 3 2 3 3 3 4 4 3 3 3 2 2 2 2 2 2 2 2 3 3 3 3 3 3 3 2 2 2 2 2 3
2 2 1 1 1 1 2 2 1 1 1 4 4 4 4 5 4 3 4 4 3 2 2 2 2 1 1 1 1 2 2 2 3 3 3 3 3 3 3 2 3 3 3 3
3 1 2 1 1 2 2 2 2 1 1 2 3 3 1 4 5 5 4 3 3 2 2 2 1 1 2 2 2 2 2 3 3 3 3 3 3 3 3 3 3 3 3 4
2 2 2 2 1 1 2 3 3 2 2 2 3 4 2 2 4 4 3 3 3 2 2 2 2 2 2 2 2 2 2 3 3 3 3 2 3 3 3 3 4 4 4 4
2 1 2 2 1 1 2 3 3 1 1 2 3 5 1 3 3 3 3 3 2 2 2 2 2 2 1 1 2 2 2 2 2 2 2 2 2 3 3 3 4 4 4 4
3 1 2 3 2 1 3 3 4 4 4 5 7 7 4 1 0 1 2 2 2 2 2 1 1 1 1 1 2 2 2 2 2 2 2 2 2 2 3 3 3 4 4 4
2 2 3 6 6 4 5 6 6 8 8 7 7 7 6 4 2 2 2 2 2 2 1 1 1 0 0 1 2 2 2 2 2 2 2 2 2 3 3 3 4 4 4 4
1 1 3 4 3 4 7 8 9 9 9 10 10 11 6 3 1 2 2 3 3 3 2 2 1 1 1 1 1 2 2 2 2 2 2 3 3 3 3 4 4 4 4 4
1 0 1 3 3 4 8 8 9 7 7 7 10 8 2 2 3 3 4 4 4 3 3 3 3 2 2 1 1 1 1 2 2 2 2 3 3 3 4 4 4 4 4 4
2 1 1 3 3 5 6 1 3 6 7 8 7 4 2 3 3 2 3 4 4 3 3 3 3 2 2 1 0 0 1 1 1 2 2 2 3 3 3 3 4 4 4 4
3 2 2 1 4 8 5 2 2 3 6 7 8 6 4 2 2 3 3 3 4 4 3 3 3 2 1 1 0 0 1 1 1 2 2 2 2 2 3 3 4 4 4 4
1 2 2 2 3 7 4 2 2 1 6 4 5 5 4 2 2 4 2 2 2 2 2 2 1 1 1 1 1 1 1 1 2 2 2 2 2 2 3 3 4 4 3 4
3 3 4 5 6 10 4 3 3 3 6 2 4 5 5 5 6 3 2 2 2 2 2 2 2 2 2 1 2 2 2 3 2 1 2 2 2 2 3 3 3 3 3 4
7 6 6 5 6 10 4 6 7 7 1 1 2 3 4 4 3 2 2 2 2 2 2 2 2 2 1 1 2 2 3 2 0 0 1 2 2 2 2 2 3 3 3 3
8 8 6 10 10 4 7 7 5 1 2 2 2 2 3 4 4 4 3 3 3 3 3 2 2 2 1 2 2 4 3 1 0 1 2 2 2 2 2 2 2 2 2 2
6 4 4 7 10 7 7 7 6 4 5 4 3 3 4 5 5 4 4 3 3 3 3 2 2 3 3 2 2 3 1 1 1 1 2 2 2 2 2 2 2 2 2 2
7 6 5 9 9 7 7 9 9 7 6 5 5 5 5 5 5 5 4 4 3 3 2 2 3 4 4 3 3 2 1 2 2 2 2 2 2 2 2 2 2 2 2 3
9 10 10 11 8 6 6 5 6 6 7 7 7 6 5 6 6 5 5 4 3 3 3 3 4 4 4 3 3 2 2 3 3 3 3 2 2 2 2 2 3 4 4 6
Wind_Direction
73 86 143 229 236 245 188 174 182 178 162 179 192 199 194 188 192 174 158 155 146 115 85 72 64 47 45 44 37 36 33 27 31 22 14 359 3 5 11 15 10 7 11 9
102 39 277 259 230 229 221 214 217 126 94 213 203 233 206 186 191 191 177 166 150 112 83 66 59 51 39 34 26 30 29 21 22 13 354 355 3 12 17 11 15 14 13 10
89 352 298 270 215 219 242 225 208 192 274 238 225 238 196 187 187 193 198 188 155 141 119 77 59 50 36 28 22 22 24 20 16 11 31 33 37 20 16 4 7 7 14 13
25 333 332 28 302 251 241 245 211 200 213 220 212 244 204 186 191 198 200 196 171 134 118 98 60 44 36 27 25 28 31 27 16 15 30 31 26 348 336 348 357 1 7 10
26 355 350 325 297 292 255 285 233 227 231 263 222 236 233 176 203 202 191 189 170 146 133 124 93 73 56 44 36 24 21 22 22 28 30 35 18 358 360 359 10 7 2 4
282 332 356 327 297 267 251 247 239 235 227 246 212 211 243 195 204 190 183 181 171 157 149 128 82 75 59 46 37 22 22 16 14 26 27 19 11 6 16 4 359 360 356 355
290 140 285 302 291 267 260 220 202 221 220 238 183 207 242 196 186 176 179 178 167 156 140 116 81 64 55 47 33 17 19 10 6 17 23 14 6 2 360 356 355 347 344 343
351 340 6 338 307 285 247 241 196 218 235 251 193 221 227 153 136 139 146 144 149 155 146 137 125 107 73 51 40 23 15 6 2 9 8 7 0 355 349 355 344 327 326 329
354 319 31 34 289 296 286 247 262 294 311 272 233 215 215 136 120 137 146 149 158 163 151 136 119 109 92 64 46 28 14 3 0 5 11 13 11 5 360 2 3 352 343 337
331 297 296 313 266 252 292 332 299 207 255 271 253 223 207 172 184 166 164 164 161 145 133 119 112 99 96 85 62 39 23 9 7 11 9 9 8 2 1 10 6 357 351 345
321 281 286 193 214 213 196 213 242 237 238 249 269 267 44 160 167 166 172 162 154 146 128 122 117 98 83 70 60 41 22 14 12 11 10 7 358 4 7 3 1 359 355 350
333 305 275 240 182 341 260 228 208 208 243 239 272 277 23 92 133 141 146 135 125 121 111 104 97 84 71 63 49 29 10 5 5 6 9 2 357 6 6 2 1 360 354 351
331 301 296 277 204 193 239 224 220 213 280 236 239 265 28 76 95 128 141 143 139 133 119 104 96 83 59 37 25 10 359 355 1 6 2 355 354 3 5 1 358 355 351 349
328 279 244 256 304 304 242 230 211 199 216 237 235 261 279 286 180 144 139 146 147 128 128 123 99 80 46 18 1 351 344 351 360 6 356 351 353 0 359 357 353 349 348 345
313 272 276 281 295 292 262 248 221 219 225 232 251 264 273 270 245 210 163 154 157 166 175 163 165 145 24 358 343 344 340 347 2 9 1 350 355 1 1 358 353 350 347 341
326 293 313 288 285 291 278 253 235 236 234 241 261 273 266 260 210 193 183 189 194 203 199 190 196 216 234 277 314 330 333 341 3 7 354 353 3 5 359 353 348 346 340 337
212 185 303 282 319 323 275 238 212 218 221 217 235 244 239 247 234 210 204 203 210 213 204 203 211 218 230 242 273 290 324 350 1 2 359 357 3 1 352 346 343 337 334 333
179 181 242 295 337 261 248 73 188 223 243 230 244 249 236 242 254 241 209 208 218 211 206 208 208 215 227 234 253 354 357 356 351 352 359 0 360 349 342 340 333 328 329 327
201 186 231 257 277 276 273 214 181 213 266 232 230 241 252 287 322 262 231 208 203 204 201 198 194 201 195 172 147 64 343 346 345 335 336 340 338 332 332 327 323 323 324 322
227 200 218 225 251 257 259 136 107 108 278 244 201 215 216 171 254 253 223 204 198 183 177 173 164 154 171 178 141 162 265 287 285 296 308 320 323 318 311 308 312 315 314 311
179 200 214 224 243 263 246 153 134 180 253 208 186 192 189 206 226 232 212 205 183 180 177 161 158 174 198 181 162 203 232 247 266 300 313 315 314 307 304 308 313 315 314 318
187 186 200 194 221 254 179 152 194 222 242 196 195 197 208 234 249 236 222 216 199 204 207 178 175 201 203 181 182 224 242 254 281 298 291 296 305 305 308 309 310 313 314 320
209 201 196 201 219 237 176 202 220 222 246 232 214 224 224 238 246 247 241 229 222 214 211 196 192 213 221 200 197 232 255 232 170 259 273 288 298 296 295 292 296 312 315 314
230 204 227 254 257 248 231 236 240 228 227 232 226 231 227 235 240 244 244 242 235 225 215 208 199 220 241 232 226 238 236 172 173 231 267 275 277 287 294 289 285 284 289 294
218 182 217 251 265 279 254 232 233 231 226 228 234 228 227 231 241 241 245 243 237 238 232 209 211 227 238 234 234 226 184 165 200 232 247 257 257 260 269 271 270 275 271 277
198 191 197 231 224 213 240 219 211 217 226 226 228 239 232 220 233 238 243 242 234 233 224 222 225 232 237 228 227 217 191 187 199 227 237 242 248 253 259 272 294 295 297 302